Regional Weather Roundup
Issued by NWS

Home | Current Version | Previous Version | Text Only | Print | Product List | Glossary Off
Versions: 1 2 3 4 5 6 7 8 9 10 11 12 13 14 15 16 17 18 19 20 21 22 23 24 25 26 27 28 29 30 31 32 33 34 35 36 37 38 39

000
ASUS45 KBOU 220007
RWRCO

WEATHER ROUNDUP FOR COLORADO
NATIONAL WEATHER SERVICE DENVER/BOULDER CO
600 PM MDT TUE OCT 21 2014

NOTE: "FAIR" INDICATES FEW OR NO CLOUDS BELOW 12000 FEET WITH NO
SIGNIFICANT WEATHER AND/OR OBSTRUCTIONS TO VISIBILITY.

COZ001>005-013-030-031-220100-
...NORTHWEST COLORADO...

CITY           SKY/WX    TMP DP  RH WIND       PRES   REMARKS
CRAIG          CLOUDY    61  37  41 SW8       29.98S
HAYDEN         CLOUDY    55  41  58 NE6       30.01S
MEEKER         CLOUDY    62  39  42 SW9       30.00S
MOUNT WERNER   NOT AVBL
STEAMBOAT SPGS CLOUDY    57  37  46 CALM      30.02S
WALDEN         CLOUDY    50  36  57 S10       30.08S
$$

COZ006>008-011-220100-
...WEST CENTRAL VALLEYS...

CITY           SKY/WX    TMP DP  RH WIND       PRES   REMARKS
GRAND JUNCTION MOCLDY    63  42  46 SE9       29.95F THUNDER
MONTROSE       MOCLDY    61  45  55 SE7       30.03F
EAGLE          CLOUDY    57  43  58 VRB6      30.06S
RIFLE          LGT RAIN  62  45  53 SW8       29.99R
DELTA          MOCLDY    65  44  45 NE10      29.99F THUNDER
NUCLA          MOCLDY    64  37  36 S9        30.05S
$$

COZ017>023-064>068-220100-
...SOUTHWEST COLORADO...

CITY           SKY/WX    TMP DP  RH WIND       PRES   REMARKS
DURANGO        CLOUDY    55  47  74 CALM      30.09F
CORTEZ         CLEAR     64  41  42 SW6       30.04F
PAGOSA SPRINGS MOCLDY    54  40  58 W3        30.15S
TELLURIDE      CLOUDY    51  40  65 CALM      30.20R
WOLF CREEK PAS PTCLDY    32  32 100 SW10        N/A  WCI  24
$$

COZ009-010-012-014-032>034-037-058>063-220100-
...CENTRAL COLORADO...

CITY           SKY/WX    TMP DP  RH WIND       PRES   REMARKS
ASPEN          CLOUDY    48  42  80 SE5       30.12F
BUENA VISTA    CLOUDY    55  37  49 CALM      30.09S
COPPER MTN     CLOUDY    37  34  87 W20       30.30R VSB<1/4
BERTHOUD PASS  CLOUDY    32  28  86 NE5       30.33S FOG     WCI  27
COTTONWOOD PAS CLOUDY    50  34  53 CALM      30.19S
GUNNISON       CLOUDY    52  36  54 N8        30.14S
KREMMLING      CLOUDY    54  37  54 SE5         N/A
LEADVILLE      MOCLDY    42  34  73 N10       30.20R
SALIDA         CLOUDY    59  38  45 SW3       30.14S
SUNLIGHT       CLOUDY    41  37  87 CALM      30.26R
WILKERSON PASS NOT AVBL
$$

COZ069>075-220100-
...SAN LUIS VALLEY/SANGRE DE CRISTO MOUNTAINS...

CITY           SKY/WX    TMP DP  RH WIND       PRES   REMARKS
ALAMOSA        PTCLDY    56  38  50 S10       30.09F
LA VETA PASS   MOCLDY    43  34  70 S7        30.23S
SAGUACHE       CLOUDY    55  36  47 S9        30.11S
$$

COZ035-036-038>040-220100-
...NORTHERN COLORADO FRONT RANGE...

CITY           SKY/WX    TMP DP  RH WIND       PRES   REMARKS
DENVER INTL AP MOCLDY    69  36  29 S9        29.90S
DMNS CITY PARK   N/A     67  36  31 E5        29.90S
AURORA         MOCLDY    66  41  40 SE8       29.93S
FRONT RANGE AP NOT AVBL
ERIE MUNI ARPT MOCLDY    67  39  36 CALM      29.89S
BOULDER MUN AP MOCLDY    68  39  34 CALM      29.90S
CENTENNIAL     MOCLDY    65  40  39 E7        29.93F
BROOMFIELD     MOCLDY    66  37  34 NW8       29.92S
FORT COLLINS   MOCLDY    64  43  45 N8        29.90S
LONGMONT       CLOUDY    71  42  35 NW6       29.90F
$$

COZ041-046-047-076>085-087-088-220100-
...PIKES PEAK/PALMER DIVIDE AND SOUTHERN FOOTHILLS...

CITY           SKY/WX    TMP DP  RH WIND       PRES   REMARKS
COLO. SPRINGS  MOCLDY    64  35  34 S7        29.99F
A. F. ACADEMY  CLEAR     61  34  36 SE6       30.00S
ELLICOTT       PTCLDY    65  37  35 S9        29.97F
FALCON         PTCLDY    59  33  37 S6        30.03S
FORT CARSON    PTCLDY    65  37  36 SW5       29.95F
LIMON          CLEAR     64  38  38 SE10      29.94F
MONUMENT HILL  PTCLDY    57  32  38 S14       30.01S
TRINIDAD       PTCLDY    64  42  44 S18G25    29.98F
$$

COZ042>045-048>051-090-091-220100-
...NORTHEAST COLORADO...

CITY           SKY/WX    TMP DP  RH WIND       PRES   REMARKS
GREELEY ARPT   MOCLDY    68  39  34 N8        29.88S
AKRON          CLEAR     70  38  31 S13       29.90S
BURLINGTON     PTCLDY    70  40  33 S12       29.93F
WRAY           CLEAR     75  40  29 SE12      29.88S
STERLING       CLEAR     73  39  29 S10       29.84S
HOLYOKE        CLEAR     73  41  31 S9        29.87S
FORT MORGAN    CLEAR     71  35  26 S10       29.87S
$$

COZ086-089-092>099-220100-
...SOUTHEAST COLORADO...

CITY           SKY/WX    TMP DP  RH WIND       PRES   REMARKS
PUEBLO         PTCLDY    73  37  27 SE10      29.87F
LA JUNTA       CLEAR     72  42  34 S10       29.91S
LAMAR          CLEAR     73  45  36 S17G23    29.90S
SPRINGFIELD      N/A     67  46  47 S17       29.99F
$$



USA.gov is the U.S. government's official web portal to all federal, state and local government web resources and services.